Location: Minneapolis
(45.0000°N, 93.0000°W)
Time: 02:21:08

N. Korean satellite - Pass Details

Date: 17 March 2018
Orbit: 460 x 512 km, 97.2° (Epoch: 22 March)

Event Time Altitude Azimuth Distance (km) Brightness Sun altitude
Rises 20:12:01 0° 215° (SW) 2,554 10.6 -9.9°
Reaches altitude 10° 20:15:16 10° 248° (WSW) 1,693 10.3 -10.4°
Maximum altitude 20:16:42 12° 271° (W) 1,585 10.6 -10.7°
Drops below altitude 10° 20:18:08 10° 294° (WNW) 1,710 10.7 -10.9°
Sets 20:21:28 0° 327° (NNW) 2,614 11.0 -11.5°
